sat.trackr.live / text

‹ back to catalog

STARLINK-5674

NORAD 55465 · 2023-015S

PAYLOAD ACTIVE UNKNOWN

§ Identity

Operator
Country
US
Launch date
2023-02-02
Launch site
AFETR
Launch vehicle
Mass (kg)
RCS (m²)

Purposes: comms

External: N2YO · Heavens-Above · Gunter

§ Orbital elements

Epoch: 2026-09-19T10:16:02.809056Z

Period
94.27 min
Inclination
43.0045°
Eccentricity
0.0001410
Mean motion
15.27601565 rev/d
Perigee alt
482.0 km
Apogee alt
484.0 km
Semi-major
6,861.1 km
B*
6.5915e-4
RAAN
314.4357°
Arg perigee
180.4677°
Mean anomaly
179.6174°
Rev number
20,035

§ Raw data

STARLINK-56741 55465U 23015S   26262.42781029  .00017932  00000+0  65915-3 0  99972 55465  43.0045 314.4357 0001410 180.4677 179.6174 15.27601565200352

JSON: /api/v1/satellites/55465 · /tle

For live sub-satellite position, see the globe view (requires WebGL).

§ Visibility from observer

Set your observer location to see the next 7 days of passes ≥ 10°. The values pass through the URL so the page stays shareable.

No JS? Fill the form by hand. The geolocation button needs JavaScript.